Ireland West Airport Knock, Ireland

1:23 PM IST on August 22, 2017 (GMT +0100)
Connaught

Weather History for EIKN - November, 2013

Change the Weather History Date:

Wednesday, November 6, 2013

  Actual Average Record
Temperature  
Mean Temperature 42 °F -  
Max Temperature 43 °F - - ()
Min Temperature 39 °F - - ()
Degree Days  
Heating Degree Days 24    
Moisture  
Dew Point 41 °F    
Average Humidity 94    
Maximum Humidity 100    
Minimum Humidity 87    
Precipitation  
Precipitation 0.08 in - - ()
Sea Level Pressure  
Sea Level Pressure 29.38 in    
Wind  
Wind Speed 6 mph ()    
Max Wind Speed 12 mph    
Max Gust Speed -    
Visibility 7.2 miles    
Events Rain    
T = Trace of Precipitation, MM = Missing Value Source: Averaged Metar Reports

Daily Weather History Graph

Daily Weather History Graph

Search for Another Location

Airport or City:

Trip Planner

Search our weather history database for the weather conditions in past years. The results will help you decide how hot, cold, wet, or windy it might be!

Date:

Astronomy

Nov. 06, 2013 Rise Set
Actual Time 7:45 AM GMT 4:51 PM GMT
Civil Twilight 7:07 AM GMT 5:29 PM GMT
Nautical Twilight 6:25 AM GMT 6:11 PM GMT
Astronomical Twilight 5:43 AM GMT 6:52 PM GMT
Moon 11:01 AM GMT (11/6) 7:28 PM GMT (11/6)
Length of Visible Light 10h 22m
Length of Day
9h 06m
Waxing Crescent, 12% of the Moon is Illuminated
Nov 6
Waxing Crescent
Nov 10
First Quarter
Nov 17
Full
Nov 25
Last Quarter
Dec 3
New

Hourly Weather History & Observations

Time (GMT) Temp. Windchill Dew Point Humidity Pressure Visibility Wind Dir Wind Speed Gust Speed Precip Events Conditions
12:00 AM 41 °F - 40 °F 92% 29.42 in - SW 6.7 mph - -  
6:00 AM 42 °F - 40 °F 88% 29.41 in 12 mi SSW 6.7 mph - - Rain Light Rain
6:00 AM 42.8 °F 38.6 °F 39.2 °F 87% 29.39 in 6.2 mi SSW 6.9 mph - N/A Rain Light Rain
7:00 AM 42.8 °F 37.5 °F 41.0 °F 93% 29.39 in 6.2 mi SSW 9.2 mph - N/A   Overcast
8:00 AM 42.8 °F 39.3 °F 41.0 °F 93% 29.39 in 6.2 mi SSW 5.8 mph - N/A   Overcast
8:30 AM 42.8 °F 38.6 °F 41.0 °F 93% 29.39 in 6.2 mi SSW 6.9 mph - N/A Rain Light Rain
9:00 AM 42.8 °F 38.6 °F 41.0 °F 93% 29.39 in 6.2 mi SW 6.9 mph - N/A Rain Light Rain
9:30 AM 42.8 °F 38.6 °F 42.8 °F 100% 29.39 in 6.2 mi SW 6.9 mph - N/A Rain Light Rain
10:00 AM 42.8 °F 38.6 °F 42.8 °F 100% 29.39 in 6.2 mi SSW 6.9 mph - N/A Rain Light Rain
10:30 AM 42.8 °F 38.6 °F 41.0 °F 93% 29.39 in 6.2 mi SSW 6.9 mph - N/A   Overcast
11:00 AM 42.8 °F 38.6 °F 41.0 °F 93% 29.39 in 6.2 mi SSW 6.9 mph - N/A Rain Light Rain
11:30 AM 42.8 °F 38.6 °F 41.0 °F 93% 29.39 in 6.2 mi SW 6.9 mph - N/A Rain Light Rain
12:00 PM 43 °F - 42 °F 92% 29.40 in 12 mi SW 6.7 mph - - Rain Light Rain
12:00 PM 42.8 °F 38.6 °F 41.0 °F 93% 29.36 in 6.2 mi SW 6.9 mph - N/A Rain Light Rain
12:30 PM 42.8 °F 39.3 °F 42.8 °F 100% 29.36 in 6.2 mi SW 5.8 mph - N/A Rain Light Rain
1:00 PM 42.8 °F 38.6 °F 41.0 °F 93% 29.36 in 6.2 mi SW 6.9 mph - N/A Rain Light Rain
1:30 PM 44.6 °F 40.7 °F 42.8 °F 93% 29.39 in 6.2 mi SW 6.9 mph - N/A   Overcast
2:00 PM 44.6 °F 40.7 °F 42.8 °F 93% 29.36 in 6.2 mi SW 6.9 mph - N/A Rain Light Rain
2:30 PM 42.8 °F 38.0 °F 42.8 °F 100% 29.36 in 6.2 mi SW 8.1 mph - N/A   Overcast
3:00 PM 42.8 °F 37.5 °F 41.0 °F 93% 29.36 in 6.2 mi WSW 9.2 mph - N/A Rain Light Rain
3:30 PM 42.8 °F 37.5 °F 42.8 °F 100% 29.36 in 6.2 mi WSW 9.2 mph - N/A   Overcast
4:00 PM 42.8 °F 38.0 °F 42.8 °F 100% 29.36 in 6.2 mi WSW 8.1 mph - N/A   Mostly Cloudy
4:30 PM 42.8 °F 36.6 °F 41.0 °F 93% 29.39 in 6.2 mi WSW 11.5 mph - N/A Rain Light Rain
5:00 PM 41.0 °F 35.8 °F 41.0 °F 100% 29.39 in 6.2 mi WSW 8.1 mph - N/A   Mostly Cloudy
6:00 PM 40 °F - 38 °F 92% 29.44 in 19 mi WSW 8.9 mph - - Rain Light Rain